| time (UTC) | temp F | wind direction | speed MPH | gust MPH | rain 1hr in | rain 24hr in | rain mn in | humidity % | barometer mb |
| 20260906203022 | 38 | 0.0 | 2.0 | 0.00 | 0.00 | 0.00 | 8 | 1013.5 | |
| 20260906202022 | 38 | 0.0 | 0.0 | 0.00 | 0.00 | 0.00 | 11 | 1013.4 | |
| 20260906201105 | 39 | 0.0 | 0.0 | 0.00 | 0.00 | 0.00 | 18 | 1013.3 | |
| 20260906200542 | 39 | 0.0 | 1.0 | 0.00 | 0.00 | 0.00 | 20 | 1013.3 | |
| 20260906190522 | 41 | 315 | 1.0 | 3.0 | 0.00 | 0.00 | 0.00 | 50 | 1012.7 |
| 20260906185522 | 42 | 315 | 1.0 | 2.0 | 0.00 | 0.00 | 0.00 | 54 | 1012.5 |
| 20260906184521 | 43 | 315 | 1.0 | 2.0 | 0.00 | 0.00 | 0.00 | 61 | 1012.5 |
| 20260906183522 | 43 | 0.0 | 2.0 | 0.00 | 0.00 | 0.00 | 67 | 1012.4 | |
| 20260906182522 | 44 | 315 | 1.0 | 3.0 | 0.00 | 0.00 | 0.00 | 70 | 1012.4 |
| 20260906181522 | 45 | 315 | 1.0 | 5.0 | 0.00 | 0.00 | 0.00 | 73 | 1012.2 |
| 20260906180522 | 45 | 0.0 | 1.0 | 0.00 | 0.00 | 0.00 | 75 | 1012.1 | |
| 20260906175522 | 46 | 338 | 2.0 | 5.0 | 0.00 | 0.00 | 0.00 | 75 | 1012.0 |
| 20260906174522 | 46 | 315 | 2.0 | 7.0 | 0.00 | 0.00 | 0.00 | 76 | 1011.9 |
| 20260906173522 | 47 | 338 | 2.0 | 8.0 | 0.00 | 0.00 | 0.00 | 76 | 1011.8 |
| 20260906172522 | 47 | 338 | 3.0 | 6.0 | 0.00 | 0.00 | 0.00 | 75 | 1011.7 |
| 20260906171521 | 48 | 293 | 2.0 | 4.0 | 0.00 | 0.00 | 0.00 | 75 | 1011.5 |
| 20260906170522 | 48 | 315 | 3.0 | 9.0 | 0.00 | 0.00 | 0.00 | 74 | 1011.3 |
| 20260906165522 | 49 | 315 | 4.0 | 11.0 | 0.00 | 0.00 | 0.00 | 72 | 1011.3 |
| 20260906164522 | 49 | 338 | 4.0 | 12.0 | 0.00 | 0.00 | 0.00 | 73 | 1011.1 |
| 20260906163522 | 50 | 338 | 3.0 | 8.0 | 0.00 | 0.00 | 0.00 | 72 | 1011.0 |
| 20260906162522 | 50 | 338 | 3.0 | 10.0 | 0.00 | 0.00 | 0.00 | 71 | 1010.9 |
| 20260906161522 | 51 | 0 | 3.0 | 10.0 | 0.00 | 0.00 | 0.00 | 70 | 1010.8 |
| 20260906160542 | 51 | 315 | 3.0 | 9.0 | 0.00 | 0.00 | 0.00 | 70 | 1010.7 |
| 20260906090520 | 53 | 338 | 7.0 | 15.0 | 0.00 | 0.00 | 0.00 | 69 | 1006.4 |
| 20260906085520 | 53 | 338 | 5.0 | 11.0 | 0.00 | 0.00 | 0.00 | 71 | 1006.2 |
| 20260906084520 | 52 | 0 | 11.0 | 22.0 | 0.00 | 0.00 | 0.00 | 70 | 1006.2 |
| 20260906083520 | 52 | 315 | 8.0 | 15.0 | 0.00 | 0.00 | 0.00 | 71 | 1006.1 |
| 20260906082520 | 52 | 0 | 8.0 | 17.0 | 0.00 | 0.00 | 0.00 | 72 | 1006.1 |
| 20260906081520 | 52 | 315 | 8.0 | 17.0 | 0.00 | 0.00 | 0.00 | 72 | 1006.0 |
| 20260906080520 | 52 | 315 | 7.0 | 15.0 | 0.00 | 0.00 | 0.00 | 73 | 1005.9 |
| 20260906075520 | 52 | 338 | 6.0 | 20.0 | 0.00 | 0.00 | 0.00 | 74 | 1005.9 |
| 20260906074520 | 51 | 338 | 7.0 | 20.0 | 0.00 | 0.00 | 0.00 | 74 | 1005.7 |
| 20260906073520 | 52 | 338 | 7.0 | 17.0 | 0.00 | 0.00 | 0.00 | 73 | 1005.6 |
| 20260906072520 | 52 | 338 | 9.0 | 18.0 | 0.00 | 0.00 | 0.00 | 73 | 1005.4 |
| 20260906071520 | 51 | 0 | 10.0 | 19.0 | 0.00 | 0.00 | 0.00 | 74 | 1005.3 |
| 20260906070540 | 50 | 338 | 8.0 | 20.0 | 0.00 | 0.00 | 0.00 | 74 | 1005.2 |
| 20260906050520 | 46 | 338 | 2.0 | 8.0 | 0.00 | 0.00 | 0.00 | 1 | 1004.1 |
| 20260906045520 | 46 | 293 | 4.0 | 12.0 | 0.00 | 0.00 | 0.00 | 1 | 1004.1 |
| 20260906044519 | 46 | 0 | 2.0 | 8.0 | 0.00 | 0.00 | 0.00 | 1 | 1004.0 |
| 20260906043520 | 46 | 315 | 2.0 | 8.0 | 0.00 | 0.00 | 0.00 | 1 | 1003.9 |
| 20260906042520 | 46 | 315 | 1.0 | 10.0 | 0.00 | 0.00 | 0.00 | 1 | 1003.9 |
| 20260906041520 | 47 | 293 | 1.0 | 8.0 | 0.00 | 0.00 | 0.00 | 1 | 1003.9 |
| 20260906040521 | 47 | 315 | 3.0 | 11.0 | 0.00 | 0.00 | 0.00 | 1 | 1003.9 |
| 20260906035541 | 47 | 0 | 2.0 | 10.0 | 0.00 | 0.00 | 0.00 | 1 | 1003.8 |
| 20260906025520 | 47 | 315 | 1.0 | 7.0 | 0.00 | 0.00 | 0.00 | 1 | 1003.5 |
| 20260906024520 | 47 | 293 | 1.0 | 5.0 | 0.00 | 0.00 | 0.00 | 1 | 1003.4 |
| 20260906024254 | 47 | 338 | 1.0 | 5.0 | 0.00 | 0.00 | 0.00 | 1 | 1003.3 |
| 20260906022520 | 47 | 315 | 1.0 | 5.0 | 0.00 | 0.00 | 0.00 | 1 | 1003.3 |
| 20260906021521 | 47 | 338 | 1.0 | 5.0 | 0.00 | 0.00 | 0.00 | 1 | 1003.1 |
| 20260906020521 | 47 | 0 | 1.0 | 5.0 | 0.00 | 0.00 | 0.00 | 1 | 1003.1 |
| 20260906015520 | 47 | 338 | 1.0 | 5.0 | 0.00 | 0.00 | 0.00 | 4 | 1003.0 |
| 20260906014541 | 47 | 338 | 2.0 | 9.0 | 0.00 | 0.00 | 0.00 | 10 | 1002.9 |
| 20260905234520 | 49 | 338 | 5.0 | 12.0 | 0.00 | 0.01 | 0.00 | 1 | 1001.6 |
| 20260905233520 | 49 | 315 | 6.0 | 14.0 | 0.00 | 0.01 | 0.00 | 1 | 1001.5 |
| 20260905232520 | 49 | 338 | 3.0 | 10.0 | 0.00 | 0.01 | 0.00 | 1 | 1001.5 |
| 20260905231520 | 49 | 338 | 2.0 | 8.0 | 0.00 | 0.01 | 0.00 | 1 | 1001.3 |
| 20260905230520 | 49 | 0 | 2.0 | 11.0 | 0.00 | 0.01 | 0.00 | 1 | 1001.3 |
| 20260905225520 | 49 | 315 | 2.0 | 7.0 | 0.00 | 0.01 | 0.00 | 1 | 1001.3 |
| 20260905224520 | 49 | 0.0 | 3.0 | 0.00 | 0.01 | 0.00 | 1 | 1001.2 | |
| 20260905223600 | 49 | 338 | 1.0 | 6.0 | 0.00 | 0.01 | 0.00 | 1 | 1001.1 |